Weather History for Corpus Christi, TX

Change the Weather History Date:

Wednesday, August 15, 2012

  Actual Average Record
Temperature  
Mean Temperature 90 °F 85 °F  
Max Temperature 100 °F 95 °F 100 °F (2012)
Min Temperature 80 °F 75 °F 67 °F (2004)
Degree Days  
Heating Degree Days 0 0  
Month to date heating degree days 0 0  
Since 1 June heating degree days 0 0  
Since 1 July heating degree days 0 0  
Cooling Degree Days 25 20  
Month to date cooling degree days 340 300  
Year to date cooling degree days 2840 2250  
Since 1 June cooling degree days 1607 1409  
Growing Degree Days 40 (Base 50)    
Moisture  
Dew Point 72 °F    
Average Humidity 60    
Maximum Humidity 85    
Minimum Humidity 35    
Precipitation  
Precipitation 0.00 in 0.08 in 0.79 in (2000)
Month to date precipitation 0.09 0.99  
Year to date precipitation 14.39 17.41  
Snow  
Snow 0.00 in - - ()
Month to date snowfall 0.0  
Since 1 June snowfall 0.0  
Since 1 July snowfall 0.0  
Snow Depth 0.00 in    
Sea Level Pressure  
Sea Level Pressure 29.90 in    
Wind  
Wind Speed 19 mph (SSE)    
Max Wind Speed 31 mph    
Max Gust Speed 41 mph    
Visibility 10 miles    
Events      
T = Trace of Precipitation, MM = Missing Value Source: NWS Daily Summary

Daily Weather History Graph

Daily Weather History Graph

Search for Another Location

Airport:

Trip Planner

Search our weather history database for the weather conditions in past years. The results will help you decide how hot, cold, wet, or windy it might be!

Date:

Astronomy

Aug. 15, 2012 Rise Set
Actual Time 7:00 AM CDT 8:07 PM CDT
Civil Twilight 6:36 AM CDT 8:32 PM CDT
Nautical Twilight 6:07 AM CDT 9:01 PM CDT
Astronomical Twilight 5:37 AM CDT 9:30 PM CDT
Moon 5:03 AM CDT (8/15) 6:40 PM CDT (8/15)
Length of Visible Light 13h 55m
Length of Day
13h 06m
Waning Crescent, 4% of the Moon is Illuminated
Aug 15
Waning Crescent
Aug 17
New
Aug 24
First Quarter
Aug 31
Full
Sep 8
Last Quarter

Hourly Weather History & Observations

Time (CDT) Temp. Heat Index Dew Point Humidity Pressure Visibility Wind Dir Wind Speed Gust Speed Precip Events Conditions
12:51 AM 84.0 °F 91.2 °F 73.9 °F 72% 29.91 in 10.0 mi SSE 11.5 mph - N/A   Clear
1:51 AM 82.9 °F 89.4 °F 73.9 °F 74% 29.91 in 10.0 mi SSE 9.2 mph - N/A   Clear
2:51 AM 82.0 °F 87.9 °F 73.9 °F 76% 29.91 in 10.0 mi SSE 9.2 mph - N/A   Clear
3:51 AM 82.0 °F 87.9 °F 73.9 °F 76% 29.90 in 10.0 mi SSE 10.4 mph - N/A   Clear
4:51 AM 81.0 °F 86.7 °F 75.0 °F 82% 29.90 in 10.0 mi SSE 9.2 mph - N/A   Partly Cloudy
5:51 AM 81.0 °F 86.7 °F 75.0 °F 82% 29.91 in 10.0 mi SSE 9.2 mph - N/A   Partly Cloudy
6:51 AM 80.1 °F 85.1 °F 75.0 °F 85% 29.91 in 10.0 mi SSE 8.1 mph - N/A   Partly Cloudy
7:51 AM 81.0 °F 87.3 °F 75.9 °F 85% 29.92 in 10.0 mi SSE 12.7 mph - N/A   Partly Cloudy
8:51 AM 84.9 °F 94.1 °F 75.9 °F 74% 29.93 in 10.0 mi South 18.4 mph 25.3 mph N/A   Partly Cloudy
9:51 AM 90.0 °F 96.9 °F 72.0 °F 55% 29.93 in 10.0 mi South 24.2 mph 31.1 mph N/A   Partly Cloudy
10:51 AM 93.0 °F 97.9 °F 69.1 °F 45% 29.94 in 10.0 mi SSE 23.0 mph 33.4 mph N/A   Partly Cloudy
11:51 AM 96.1 °F 99.3 °F 66.0 °F 37% 29.92 in 10.0 mi South 24.2 mph 34.5 mph N/A   Partly Cloudy
12:51 PM 99.0 °F 102.9 °F 66.0 °F 34% 29.91 in 10.0 mi South 25.3 mph 33.4 mph N/A   Partly Cloudy
1:51 PM 99.0 °F 102.9 °F 66.0 °F 34% 29.89 in 8.0 mi SSE 24.2 mph 35.7 mph N/A   Partly Cloudy
2:51 PM 99.0 °F 104.2 °F 68.0 °F 36% 29.87 in 10.0 mi SSE 26.5 mph 32.2 mph N/A   Clear
3:51 PM 99.0 °F 105.5 °F 69.1 °F 38% 29.85 in 8.0 mi SSE 27.6 mph 35.7 mph N/A   Clear
4:51 PM 96.1 °F 102.9 °F 70.0 °F 43% 29.83 in 9.0 mi SSE 29.9 mph 36.8 mph N/A   Clear
5:51 PM 93.9 °F 100.3 °F 70.0 °F 46% 29.83 in 10.0 mi SE 26.5 mph 34.5 mph N/A   Clear
6:51 PM 90.0 °F 96.4 °F 71.1 °F 54% 29.84 in 10.0 mi SSE 26.5 mph 32.2 mph N/A   Partly Cloudy
7:51 PM 87.1 °F 94.5 °F 73.0 °F 63% 29.85 in 10.0 mi SE 24.2 mph 31.1 mph N/A   Partly Cloudy
8:51 PM 84.9 °F 93.3 °F 75.0 °F 72% 29.87 in 10.0 mi SE 19.6 mph 24.2 mph N/A   Partly Cloudy
9:51 PM 84.9 °F 93.3 °F 75.0 °F 72% 29.90 in 10.0 mi SE 18.4 mph - N/A   Partly Cloudy
10:51 PM 84.0 °F 91.9 °F 75.0 °F 74% 29.92 in 10.0 mi SSE 17.3 mph - N/A   Partly Cloudy
11:51 PM 84.0 °F 91.9 °F 75.0 °F 74% 29.94 in 10.0 mi SSE 15.0 mph - N/A   Clear